Location: Unspecified
(0.0000°N, 0.0000°E)
Time: 18:44:51
(UTC+00:00)

S-56A Canister/Altair - Visible Passes

Search period start: 26 March 2017 00:00
Search period end: 05 April 2017 00:00
Orbit: 639 x 2495 km, 38.9° (Epoch: 25 March)

Date Brightness Start Highest point End Pass type
(mag) Time Alt. Az. Time Alt. Az. Time Alt. Az.
26 Mar 11.0 01:52:33 29° ESE 01:52:33 29° ESE 02:01:16 10° E visible
26 Mar 9.8 03:50:06 44° SW 03:56:35 87° SE 04:09:21 10° NE visible
27 Mar 11.4 01:22:51 20° ESE 01:22:51 20° ESE 01:27:23 10° E visible
27 Mar 9.8 03:20:22 65° SSW 03:23:14 78° SE 03:36:33 10° NE visible
27 Mar 10.3 05:17:53 13° WSW 05:29:41 37° NW 05:40:06 10° NNE visible
28 Mar 11.7 00:53:00 10° E 00:53:00 10° E 00:53:14 10° E visible
28 Mar 9.9 02:50:31 70° ESE 02:50:31 70° ESE 03:03:36 10° ENE visible
28 Mar 10.2 04:48:01 24° W 04:56:31 43° NW 05:07:51 10° NNE visible
29 Mar 10.3 02:20:31 51° E 02:20:31 51° E 02:30:30 10° ENE visible
29 Mar 10.0 04:18:00 38° W 04:23:17 50° NW 04:35:27 10° NNE visible
30 Mar 10.9 01:50:24 34° E 01:50:24 34° E 01:57:13 10° ENE visible
30 Mar 9.9 03:47:53 54° WNW 03:49:59 57° NW 04:02:56 10° NNE visible
31 Mar 11.3 01:20:08 21° ENE 01:20:08 21° ENE 01:23:46 10° ENE visible
31 Mar 9.9 03:17:36 63° NNW 03:17:36 63° NNW 03:30:16 10° NE visible
31 Mar 10.9 05:15:05 11° WNW 05:23:45 20° NW 05:32:07 10° N visible
01 Apr 11.7 00:49:45 11° ENE 00:49:45 11° ENE 00:50:08 10° ENE visible
01 Apr 10.1 02:47:14 56° NNE 02:47:14 56° NNE 02:57:28 10° NE visible
01 Apr 10.8 04:44:42 19° WNW 04:50:26 24° NW 05:00:07 10° N visible
02 Apr 10.6 02:16:43 42° NE 02:16:43 42° NE 02:24:33 10° NE visible
02 Apr 10.6 04:14:11 27° WNW 04:17:06 28° NW 04:27:55 10° NNE visible
03 Apr 11.0 01:46:07 29° NE 01:46:07 29° NE 01:51:29 10° NE visible
03 Apr 10.5 03:43:34 33° NW 03:43:42 33° NW 03:55:32 10° NNE visible
04 Apr 11.4 01:15:25 19° NE 01:15:25 19° NE 01:18:16 10° NE visible
04 Apr 10.6 03:12:51 35° NNW 03:12:51 35° NNW 03:22:59 10° NNE visible
